Location: Appeville
(49.3218°N, 1.3427°W)
Time: 17:06:37
(UTC+00:00)

ATLAS 5 CENTAUR R/B - Pass Details

Date: 08 December 2019
Orbit: 550 x 1109 km, 63.4° (Epoch: 17 January)

Event Time Altitude Azimuth Distance (km) Brightness Sun altitude
Exits shadow 06:43:05 13° 304° (NW) 1,906 3.4 -9.9°
Maximum altitude 06:45:53 20° 345° (NNW) 1,608 3.3 -9.5°
Drops below altitude 10° 06:49:42 10° 32° (NNE) 2,312 4.6 -9.0°
Sets 06:52:58 0° 49° (NE) 3,361 5.7 -8.5°
